Dewpoint
-20 -21 -22 -25 -29 -31 -31 -31 -31 -30 -30 -29 -29 -29 -30 -30 -29 -29 -27 -25 -25 -23 -22 -23 -22 -21 -22 -18 -17 -14 -12 -10 -10 -10 -10 -9 -9 -11 -11 -12 -11 -10 -11 -11 -12 -13 -12
-21 -20 -19 -19 -21 -25 -30 -31 -31 -30 -30 -30 -28 -29 -29 -29 -30 -29 -29 -25 -23 -24 -21 -21 -22 -21 -21 -18 -18 -13 -11 -10 -10 -9 -9 -9 -9 -10 -11 -10 -10 -12 -11 -10 -12 -13 -10
-22 -22 -20 -19 -18 -18 -22 -27 -31 -31 -30 -29 -28 -27 -28 -30 -31 -30 -29 -27 -23 -23 -21 -22 -24 -22 -20 -19 -19 -14 -10 -9 -9 -9 -10 -9 -9 -9 -9 -10 -10 -10 -8 -9 -10 -11 -8
-19 -22 -21 -20 -19 -18 -17 -19 -26 -31 -30 -29 -29 -26 -27 -31 -31 -29 -29 -29 -24 -22 -24 -26 -24 -23 -22 -20 -20 -15 -13 -9 -8 -8 -9 -10 -8 -9 -9 -8 -8 -9 -8 -6 -10 -10 -10
-13 -16 -18 -19 -19 -18 -17 -16 -18 -27 -31 -29 -28 -26 -26 -29 -30 -27 -26 -28 -26 -25 -24 -23 -24 -21 -22 -23 -20 -17 -12 -11 -9 -8 -9 -11 -9 -8 -7 -6 -9 -9 -7 -7 -7 -11 -7
-7 -10 -12 -14 -16 -16 -16 -15 -15 -17 -29 -29 -28 -27 -24 -26 -29 -24 -22 -26 -24 -25 -24 -24 -24 -25 -25 -20 -20 -21 -15 -13 -12 -12 -10 -10 -9 -7 -6 -6 -8 -7 -7 -5 -4 -6 -6
-5 -6 -7 -8 -10 -10 -10 -11 -12 -15 -19 -30 -28 -27 -23 -23 -29 -26 -21 -24 -26 -19 -24 -25 -22 -21 -19 -20 -22 -22 -16 -13 -12 -11 -7 -8 -7 -5 -3 -5 -4 -4 -7 -6 -6 -7 -3
-2 -2 -2 -3 -3 -4 -5 -7 -9 -10 -14 -30 -29 -27 -22 -22 -26 -29 -23 -21 -18 -21 -19 -19 -20 -20 -18 -18 -19 -18 -18 -14 -11 -9 -9 -8 -9 -6 -6 -6 -6 -4 -8 -7 -5 -6 -4
-5 -5 -5 -4 -3 -2 -3 -5 -5 -7 -14 -27 -30 -27 -21 -21 -20 -22 -26 -23 -21 -18 -21 -20 -19 -19 -18 -17 -18 -17 -18 -12 -11 -10 -9 -6 -8 -7 -6 -5 -5 -7 -8 -4 -3 -4 -4
-2 -2 -2 -4 -6 -6 -5 -4 -4 -7 -15 -30 -27 -26 -21 -19 -18 -18 -18 -22 -20 -16 -12 -15 -20 -18 -18 -20 -19 -19 -17 -13 -13 -10 -8 -8 -9 -8 -8 -7 -4 -7 -5 -4 -4 -3 -1
-2 -1 -1 -1 -2 -5 -7 -6 -4 -6 -16 -30 -22 -23 -22 -20 -18 -17 -16 -19 -22 -14 -6 -15 -18 -18 -18 -18 -18 -19 -17 -16 -10 -12 -11 -11 -9 -7 -7 -6 -5 -6 -6 -5 -4 -4 -1
-1 -0 0 1 0 -1 -3 -7 -7 -6 -17 -29 -17 -21 -19 -20 -20 -17 -16 -18 -16 -9 -7 -15 -17 -13 -15 -16 -16 -16 -16 -14 -13 -11 -12 -11 -11 -7 -11 -7 -6 -8 -7 -4 -2 -2 -2
-0 1 1 1 1 1 -0 -4 -8 -6 -18 -27 -11 -15 -19 -18 -20 -18 -16 -14 -10 -6 -17 -13 -15 -13 -12 -14 -14 -13 -12 -11 -10 -14 -12 -12 -11 -11 -9 -9 -10 -10 -11 -8 -7 -5 -2
0 2 2 2 2 2 1 -0 -5 -8 -12 -28 -16 -11 -9 -17 -22 -19 -18 -13 -8 -17 -19 -14 -13 -13 -15 -13 -14 -13 -13 -10 -12 -12 -12 -11 -12 -12 -11 -11 -11 -9 -12 -9 -5 -4 -4
0 2 3 4 3 3 2 1 -1 -8 -7 -23 -27 -25 -8 -15 -20 -20 -17 -12 -10 -16 -15 -13 -15 -14 -15 -14 -13 -13 -12 -10 -12 -14 -13 -12 -15 -12 -10 -8 -10 -11 -7 -9 -9 -9 -8
2 2 3 4 4 4 3 2 1 -3 -7 -15 -18 -17 -7 -13 -17 -17 -13 -15 -15 -16 -13 -14 -15 -13 -13 -13 -13 -11 -13 -13 -11 -10 -12 -12 -9 -11 -10 -11 -10 -10 -11 -8 -10 -6 -6
3 3 3 2 4 4 3 2 0 -1 -8 -10 -14 -15 -6 -11 -13 -10 -13 -15 -14 -12 -13 -14 -13 -12 -12 -11 -10 -10 -11 -12 -11 -10 -11 -13 -13 -12 -13 -11 -11 -10 -12 -11 -13 -12 -9
3 3 3 3 3 3 2 2 0 -1 -7 -9 -8 -7 -5 -8 -10 -17 -16 -14 -13 -12 -12 -11 -12 -12 -11 -10 -9 -10 -10 -12 -11 -10 -8 -10 -12 -8 -17 -16 -14 -16 -15 -15 -9 -9 -13
4 4 4 4 3 4 3 2 2 0 -1 -6 -7 -7 -6 -7 -7 -12 -16 -14 -14 -13 -12 -11 -11 -11 -11 -11 -12 -10 -11 -12 -12 -9 -9 -11 -12 -13 -10 -14 -13 -14 -15 -18 -17 -13 -14
5 5 5 4 4 3 3 3 3 2 0 -2 -7 -6 -6 -6 -13 -14 -12 -12 -13 -13 -14 -13 -12 -12 -11 -10 -11 -11 -11 -12 -11 -8 -8 -10 -13 -14 -10 -11 -14 -15 -12 -15 -15 -13 -14
4 6 6 5 4 4 4 4 3 2 2 -1 -1 -6 -5 -5 -5 -11 -12 -13 -11 -12 -12 -12 -12 -12 -12 -14 -13 -10 -11 -12 -11 -10 -11 -14 -14 -11 -11 -12 -12 -12 -12 -13 -13 -15 -13
4 5 7 6 5 4 4 3 3 3 2 2 1 -0 -4 -8 -5 -8 -10 -8 -9 -10 -13 -11 -10 -14 -12 -13 -13 -14 -16 -14 -14 -13 -12 -13 -13 -12 -13 -14 -12 -10 -11 -11 -11 -13 -12
6 6 6 6 5 4 4 4 3 4 3 3 3 2 -1 -4 -5 -5 -6 -7 -7 -12 -8 -13 -12 -11 -11 -11 -13 -13 -12 -13 -14 -13 -13 -14 -12 -12 -11 -13 -13 -16 -15 -12 -14 -14 -13
5 6 6 6 5 4 5 4 4 4 4 4 4 3 1 -1 -4 -4 -6 -7 -6 -7 -8 -12 -11 -12 -11 -11 -10 -10 -10 -10 -11 -10 -11 -15 -17 -16 -11 -12 -8 -16 -15 -15 -13 -14 -14
3 5 6 7 6 5 5 4 4 5 5 5 5 4 3 1 -1 -2 -3 -3 -3 -5 -7 -8 -9 -10 -9 -11 -11 -12 -10 -10 -10 -12 -13 -15 -16 -14 -12 -13 -11 -15 -15 -12 -13 -16 -14
5 4 4 6 5 5 4 5 3 4 5 5 5 5 4 2 1 1 -2 -4 -3 -8 -8 -9 -8 -9 -10 -10 -9 -12 -9 -11 -11 -11 -12 -13 -17 -13 -14 -13 -9 -11 -15 -13 -17 -14 -17
4 4 5 5 6 5 5 4 5 4 5 5 5 5 4 3 3 2 0 -1 -3 -7 -5 -7 -9 -10 -14 -9 -8 -7 -9 -12 -9 -12 -12 -10 -10 -11 -11 -12 -11 -14 -13 -13 -12 -10 -18
5 4 5 6 6 5 5 4 5 4 4 5 5 5 4 3 4 4 2 2 -1 -4 -2 -5 -5 -9 -11 -10 -10 -10 -10 -10 -12 -13 -12 -11 -12 -12 -14 -13 -9 -15 -11 -15 -13 -18 -17
6 5 4 5 6 6 6 5 5 5 4 5 5 5 4 2 4 4 3 3 2 1 -2 -4 -4 -11 -10 -11 -12 -13 -10 -14 -12 -8 -14 -10 -11 -11 -11 -10 -13 -13 -14 -16 -16 -15 -14
Wind_Speed
18 18 19 19 17 15 13 14 15 16 17 17 11 3 4 3 6 4 9 14 9 17 13 12 15 22 16 25 19 26 11 8 6 6 4 1 1 3 0 2 7 3 3 9 18 20 15
16 17 18 18 18 17 15 12 12 15 16 16 13 5 3 3 7 7 5 8 9 13 14 5 8 14 24 19 29 16 12 11 8 4 3 3 2 2 0 2 1 4 15 16 13 17 15
15 16 16 17 17 17 17 16 12 11 14 16 17 10 5 5 5 4 8 2 7 2 19 2 7 5 13 17 31 15 9 12 13 9 9 8 3 1 1 3 3 9 7 8 9 15 6
16 16 16 16 16 16 17 16 15 11 12 13 14 11 7 3 2 1 7 8 6 3 21 10 4 9 2 22 31 18 13 7 11 9 10 8 5 4 5 7 5 5 1 4 6 4 6
16 17 17 17 17 17 17 17 16 13 10 13 14 13 7 3 1 3 7 11 6 2 3 21 5 1 5 22 31 25 15 10 7 7 8 14 9 7 8 3 4 6 3 6 7 7 4
18 18 18 18 18 18 18 18 18 16 10 13 13 13 6 6 2 3 7 16 15 15 1 3 16 1 14 18 22 37 10 13 9 8 4 11 8 3 3 4 2 5 5 4 10 6 7
19 19 19 19 19 19 19 18 18 17 15 8 14 13 8 8 3 3 6 14 6 1 16 9 8 4 13 16 15 40 21 5 8 12 6 7 7 7 11 3 5 7 4 5 12 11 6
21 21 20 20 20 21 21 21 20 19 15 7 14 13 9 6 5 2 4 5 6 5 5 6 6 10 13 15 11 34 31 8 9 5 9 6 2 4 10 5 7 2 1 6 10 4 2
22 22 22 22 21 22 22 21 23 20 15 8 11 12 10 1 8 3 2 3 6 8 3 4 5 6 9 8 6 25 35 7 7 6 5 0 5 9 6 5 6 1 2 4 8 12 4
22 23 25 26 25 24 23 22 24 23 13 7 12 12 11 6 3 6 1 2 7 5 4 7 5 6 10 2 3 23 26 8 7 5 5 4 4 8 4 3 5 3 1 11 12 7 3
19 22 24 27 30 30 28 25 26 23 12 6 13 12 11 9 8 7 3 3 6 4 4 7 5 6 9 8 9 20 17 8 3 4 5 5 5 6 4 5 3 7 11 11 10 3 3
18 21 23 26 29 32 33 29 27 23 11 6 14 11 14 12 13 11 3 6 6 5 3 4 5 9 7 10 8 14 11 14 1 2 1 5 5 3 5 9 3 6 3 2 4 1 3
18 21 23 25 28 31 33 33 30 24 9 4 14 18 17 16 14 10 3 4 4 6 3 7 5 6 3 6 6 10 6 8 5 7 8 8 4 5 3 5 4 9 6 3 5 5 1
16 20 23 25 27 29 32 33 32 26 10 1 4 18 24 18 16 11 2 3 7 1 3 3 4 4 5 9 4 8 4 6 5 3 3 4 8 4 7 5 5 2 4 4 2 2 4
15 19 23 25 25 28 31 33 33 31 14 3 7 11 25 19 17 11 2 6 5 3 2 6 4 5 5 2 1 6 3 3 4 2 3 5 6 5 3 0 3 5 5 4 1 1 2
14 18 21 25 24 26 29 32 33 33 17 5 3 4 23 17 15 10 6 2 1 2 3 2 4 5 4 6 7 6 4 2 4 2 4 2 6 3 6 1 3 5 2 4 3 5 5
15 17 20 22 26 27 27 31 33 32 20 5 2 1 21 13 9 10 4 1 1 2 3 3 1 2 3 4 1 4 5 2 1 2 4 4 3 7 1 4 3 5 5 4 4 3 3
15 17 19 22 25 25 26 29 31 30 24 5 2 3 18 7 7 5 2 2 1 2 1 2 2 3 3 2 3 2 3 5 2 1 1 3 3 5 7 4 4 4 4 4 4 6 1
15 17 18 21 24 23 24 26 31 31 28 11 3 3 10 7 4 2 1 0 0 2 2 3 2 4 2 2 2 3 3 2 2 2 1 2 1 5 7 4 1 4 0 4 4 2 2
16 16 17 18 22 22 22 24 27 29 29 15 3 3 6 10 7 4 2 1 2 1 1 3 2 2 1 3 4 4 3 0 1 3 4 2 1 5 5 8 2 5 2 1 4 2 2
17 16 15 18 20 20 20 21 22 26 25 8 8 4 4 4 7 4 0 1 2 2 1 3 1 4 5 2 3 4 3 5 2 6 3 3 3 3 7 14 7 10 9 5 5 5 5
18 16 16 16 17 19 17 17 22 21 22 26 5 4 2 2 2 3 4 2 2 4 4 3 3 1 6 5 7 4 3 3 5 3 2 3 3 3 5 2 4 7 9 9 5 4 7
20 18 15 16 16 16 17 15 19 20 22 13 15 12 3 1 2 2 3 4 4 0 4 6 8 3 2 12 16 13 8 6 2 3 1 2 2 4 5 5 7 4 5 4 3 4 6
21 21 18 16 15 13 16 16 16 18 17 17 18 11 4 3 1 3 3 3 4 4 4 4 8 5 3 4 9 2 1 2 3 1 2 3 3 2 4 7 4 4 3 5 6 8 9
22 22 20 18 16 14 13 16 16 17 15 12 15 11 5 2 4 5 7 6 9 8 6 6 8 7 6 6 3 4 1 1 1 4 1 2 4 2 1 1 8 5 3 5 4 8 6
23 23 22 20 16 16 15 14 15 17 15 16 16 13 5 4 5 7 4 5 2 2 5 4 5 7 3 2 3 1 3 2 2 2 3 3 5 3 2 0 4 6 4 4 3 4 6
26 25 24 23 19 19 17 17 14 18 16 16 17 13 8 6 9 8 6 4 4 3 3 3 2 3 5 2 1 3 4 3 2 4 5 3 2 4 3 4 9 6 6 6 5 5 2
29 28 27 25 23 23 19 19 17 18 19 18 20 18 11 7 16 15 12 12 9 7 3 5 0 1 2 1 3 3 3 4 1 4 6 7 7 4 2 0 8 12 7 7 4 2 8
32 30 29 28 26 24 23 20 20 19 20 19 22 21 18 15 17 26 27 27 22 21 10 9 4 6 9 2 1 2 2 1 2 3 1 2 7 5 10 6 2 25 8 13 9 17 23
Wind_Direction
46 46 43 41 39 35 34 37 36 34 36 35 35 55 50 188 186 160 54 45 51 35 37 38 59 44 31 40 8 350 19 1 342 319 307 310 92 136 82 312 329 234 284 328 311 311 289
38 42 42 40 36 33 29 24 27 29 29 30 29 32 10 331 210 214 218 27 38 44 34 64 81 58 33 46 8 7 5 6 1 1 11 5 5 48 156 271 135 299 299 293 291 282 272
36 34 35 36 33 31 26 21 16 19 21 23 24 24 12 353 180 208 206 247 11 33 25 79 68 42 31 21 8 11 26 32 43 53 53 46 61 104 307 305 298 289 302 308 263 253 255
34 33 31 29 27 26 24 21 19 12 15 17 20 21 20 27 165 253 195 189 344 323 47 60 71 38 63 11 9 19 43 46 47 53 50 22 28 51 11 321 332 351 5 351 280 293 268
37 33 30 26 23 21 19 16 15 11 7 13 15 18 25 31 308 344 174 166 27 81 169 43 38 290 30 14 14 25 26 39 43 39 47 46 47 47 7 12 5 10 293 307 313 328 304
37 36 32 28 25 22 19 13 8 4 360 9 10 12 25 20 15 45 155 160 77 53 197 332 23 30 5 347 11 11 13 33 28 25 45 24 43 54 32 33 297 284 323 295 304 307 314
39 38 35 31 26 23 17 14 9 2 354 2 13 12 20 27 60 70 140 181 253 193 65 71 60 73 340 349 6 14 12 23 37 40 20 10 41 7 344 281 271 274 236 274 287 280 305
38 35 32 27 24 21 16 11 9 3 354 339 8 11 16 43 50 66 172 214 224 164 100 64 25 13 0 345 344 6 9 40 41 27 349 12 345 331 344 354 343 340 24 294 291 293 13
34 33 31 25 21 20 17 14 10 4 359 348 357 11 16 32 37 32 234 237 179 158 89 16 4 348 347 338 18 2 9 17 47 29 20 74 279 329 6 329 350 337 186 300 313 321 284
38 36 34 30 25 22 17 13 9 6 8 14 360 12 20 24 355 352 333 203 185 170 79 336 338 7 353 23 41 5 6 17 27 7 336 249 310 349 345 299 354 319 243 320 302 323 317
38 33 31 30 28 25 21 15 11 8 10 38 5 13 20 26 6 3 353 150 162 155 24 331 333 351 1 52 337 2 355 15 101 311 57 273 324 335 340 328 98 247 321 283 282 242 288
32 29 26 26 26 24 21 18 15 12 18 42 17 16 18 14 8 9 61 129 139 49 284 9 344 353 12 24 13 338 5 22 47 5 353 246 292 181 225 304 191 300 314 245 253 304 51
31 28 25 23 20 20 19 18 15 13 22 54 36 31 17 12 8 11 78 150 37 91 28 337 338 5 352 329 346 19 15 17 43 12 8 331 285 308 331 338 20 14 26 340 1 20 8
27 24 18 17 15 15 16 13 13 9 8 220 1 21 15 11 8 8 16 55 68 119 296 22 359 317 27 3 15 344 18 18 42 61 52 31 336 25 347 137 225 337 116 128 183 346 280
18 17 9 7 7 9 11 10 9 10 4 313 277 337 6 7 3 3 350 48 189 224 9 360 317 27 348 23 347 3 48 331 227 140 103 13 284 313 246 292 111 313 34 207 108 270 49
5 6 7 6 6 8 7 6 6 10 12 354 334 341 4 3 1 7 62 104 351 21 76 32 39 43 328 319 360 27 353 280 352 61 164 209 302 231 295 8 42 104 209 18 13 28 349
356 1 2 2 3 7 8 5 4 8 7 359 37 65 1 359 359 41 82 215 355 54 38 43 75 311 265 298 107 311 281 264 220 360 122 136 117 288 347 20 206 347 6 28 114 92 149
344 352 358 3 0 8 12 9 9 9 11 27 55 58 4 10 38 49 63 1 9 99 92 83 122 204 223 259 275 279 266 220 355 337 314 188 152 282 237 252 142 127 167 124 96 308 91
330 334 348 356 356 4 11 12 9 10 10 20 58 54 23 31 73 22 280 297 239 137 196 165 202 214 183 234 333 207 261 245 343 26 156 220 315 336 349 1 32 83 84 118 101 84 231
315 321 332 345 350 351 4 7 11 13 13 24 41 23 19 49 76 108 27 23 337 184 182 199 198 174 164 258 205 287 284 253 339 21 21 161 144 177 203 233 165 311 223 145 113 95 208
299 306 319 330 342 345 356 9 13 15 20 30 34 58 17 353 21 32 196 302 325 316 176 216 263 217 172 305 317 237 250 314 79 5 32 89 236 221 251 270 264 257 250 194 171 203 167
289 298 306 321 331 341 346 0 3 10 21 39 53 351 7 62 355 359 359 295 312 308 170 247 189 193 167 205 195 258 136 192 231 3 61 352 268 339 286 232 195 265 234 211 192 198 268
281 286 292 302 312 327 339 353 4 8 21 39 31 14 12 360 51 68 231 236 257 287 231 237 212 140 214 244 262 278 265 259 259 118 50 48 26 22 272 346 310 323 236 184 193 213 160
274 279 284 283 295 315 334 345 346 353 8 29 22 18 358 283 170 211 205 224 252 223 227 231 212 161 232 281 294 261 219 191 188 109 169 125 81 87 281 333 5 253 161 174 209 235 213
271 273 277 277 281 297 319 326 331 336 348 2 11 8 346 301 247 275 240 236 274 266 237 239 243 236 279 312 23 7 7 132 80 31 22 126 113 2 47 235 297 333 213 189 159 286 195
268 272 273 274 268 281 299 305 318 316 330 338 340 341 336 286 249 268 218 220 256 249 310 236 233 239 253 95 72 178 244 200 265 235 75 87 96 116 60 168 239 237 244 192 133 302 209
266 267 271 270 261 264 278 298 298 303 311 314 318 315 314 253 262 250 226 217 198 191 247 247 204 180 176 115 195 197 250 158 232 197 175 142 151 186 192 246 284 230 183 149 79 243 244
260 264 266 268 266 260 272 287 288 289 294 299 303 304 291 250 275 270 258 247 243 210 206 178 48 229 68 161 171 217 179 220 139 198 180 173 157 199 87 247 286 165 125 165 211 323 314
258 259 262 264 267 263 265 272 278 282 289 294 293 302 296 266 279 288 280 279 262 252 235 204 230 178 213 81 312 66 256 72 177 269 146 266 197 181 189 218 252 188 225 215 291 301 303
Height
1560 1558 1555 1553 1551 1549 1547 1545 1543 1541 1538 1535 1533 1532 1531 1531 1530 1530 1529 1528 1527 1525 1524 1522 1521 1519 1516 1513 1517 1508 1504 1502 1500 1500 1501 1500 1500 1497 1499 1499 1496 1496 1492 1492 1490 1488 1486
1563 1560 1558 1555 1553 1551 1548 1546 1545 1542 1540 1537 1535 1532 1531 1530 1530 1530 1530 1529 1528 1527 1525 1523 1522 1521 1518 1515 1517 1510 1506 1503 1501 1501 1500 1499 1497 1497 1496 1496 1496 1493 1492 1488 1486 1484 1483
1565 1563 1560 1557 1554 1552 1549 1547 1545 1543 1541 1538 1535 1533 1531 1528 1529 1529 1529 1529 1528 1527 1525 1522 1522 1521 1521 1524 1517 1511 1507 1504 1503 1501 1500 1499 1498 1497 1496 1495 1494 1494 1495 1487 1480 1477 1477
1567 1564 1561 1558 1556 1553 1550 1548 1545 1543 1541 1539 1536 1533 1531 1529 1529 1529 1529 1530 1528 1527 1526 1522 1522 1521 1522 1521 1518 1510 1507 1506 1504 1503 1501 1499 1498 1497 1497 1496 1494 1496 1496 1500 1478 1476 1474
1570 1566 1563 1560 1558 1555 1552 1549 1546 1543 1541 1539 1537 1534 1532 1530 1529 1527 1527 1530 1528 1526 1526 1524 1523 1522 1524 1523 1516 1513 1508 1506 1505 1503 1501 1500 1499 1500 1500 1502 1507 1506 1509 1495 1484 1475 1474
1571 1568 1565 1562 1559 1556 1553 1550 1547 1544 1542 1540 1538 1535 1532 1530 1528 1527 1527 1528 1527 1527 1526 1525 1524 1527 1524 1522 1517 1512 1507 1506 1505 1503 1502 1501 1501 1505 1505 1508 1528 1517 1513 1496 1491 1479 1474
1574 1571 1568 1565 1561 1557 1553 1549 1546 1544 1542 1540 1538 1535 1532 1530 1528 1527 1527 1528 1532 1531 1527 1528 1530 1528 1525 1522 1518 1512 1508 1507 1505 1504 1508 1506 1512 1514 1508 1506 1505 1502 1509 1506 1488 1478 1476
1577 1574 1571 1567 1563 1559 1554 1551 1547 1543 1541 1539 1538 1535 1532 1531 1529 1527 1527 1527 1526 1528 1529 1528 1529 1528 1525 1523 1520 1515 1510 1508 1508 1512 1510 1512 1524 1509 1506 1503 1502 1501 1514 1506 1483 1477 1480
1580 1577 1573 1569 1565 1560 1556 1552 1548 1543 1539 1538 1537 1534 1532 1531 1529 1528 1526 1526 1525 1526 1528 1530 1529 1528 1527 1525 1523 1519 1515 1512 1514 1514 1518 1520 1514 1508 1506 1506 1506 1507 1513 1499 1492 1482 1474
1583 1580 1576 1571 1566 1561 1557 1552 1548 1543 1539 1538 1537 1535 1532 1531 1531 1527 1526 1525 1525 1526 1537 1535 1530 1530 1528 1523 1525 1523 1518 1519 1517 1520 1518 1517 1510 1509 1513 1513 1505 1515 1496 1495 1491 1490 1479
1586 1582 1578 1573 1568 1563 1557 1553 1548 1543 1540 1539 1538 1536 1533 1530 1530 1527 1526 1524 1525 1528 1546 1534 1531 1530 1528 1529 1531 1526 1523 1518 1523 1521 1523 1519 1515 1513 1512 1505 1506 1505 1495 1492 1489 1492 1480
1588 1584 1580 1575 1571 1565 1559 1554 1549 1544 1541 1541 1539 1536 1534 1531 1529 1527 1525 1525 1527 1533 1551 1536 1534 1534 1530 1530 1532 1529 1527 1523 1521 1521 1519 1520 1513 1513 1512 1502 1502 1499 1495 1487 1484 1484 1489
1590 1586 1582 1577 1573 1568 1562 1556 1550 1545 1542 1542 1540 1537 1534 1531 1530 1527 1526 1527 1532 1545 1542 1541 1544 1542 1543 1541 1536 1535 1537 1540 1545 1540 1548 1526 1515 1510 1509 1505 1504 1506 1509 1519 1505 1506 1491
1591 1587 1584 1579 1575 1569 1564 1558 1552 1546 1543 1541 1540 1537 1535 1531 1529 1527 1526 1528 1537 1546 1546 1549 1548 1545 1545 1546 1542 1541 1540 1549 1548 1552 1562 1560 1524 1519 1511 1519 1523 1521 1528 1537 1523 1519 1510
1592 1588 1586 1581 1576 1571 1565 1559 1553 1546 1542 1541 1540 1539 1536 1533 1530 1528 1528 1544 1555 1552 1554 1554 1548 1546 1547 1547 1550 1545 1550 1552 1553 1553 1559 1567 1545 1518 1515 1514 1518 1517 1526 1526 1534 1534 1528
1593 1590 1587 1583 1578 1573 1566 1561 1554 1547 1543 1541 1540 1540 1538 1535 1532 1530 1531 1550 1555 1555 1556 1556 1554 1559 1558 1552 1551 1552 1549 1548 1548 1549 1549 1558 1555 1522 1517 1515 1517 1521 1524 1528 1534 1536 1531
1594 1591 1588 1584 1579 1574 1568 1562 1555 1549 1543 1541 1540 1541 1540 1537 1535 1533 1552 1557 1555 1556 1557 1558 1559 1560 1559 1558 1559 1558 1553 1548 1547 1547 1548 1556 1563 1528 1519 1532 1539 1529 1533 1539 1547 1556 1557
1595 1592 1588 1584 1580 1575 1569 1564 1557 1550 1544 1541 1541 1542 1542 1538 1539 1548 1556 1556 1556 1556 1557 1557 1558 1558 1558 1561 1562 1557 1552 1547 1546 1546 1549 1550 1561 1553 1536 1533 1532 1539 1545 1552 1547 1545 1565
1594 1592 1589 1584 1581 1576 1571 1566 1560 1553 1546 1542 1542 1543 1543 1539 1550 1555 1555 1555 1555 1556 1556 1556 1556 1557 1557 1560 1564 1559 1551 1545 1546 1547 1550 1549 1556 1551 1522 1532 1530 1539 1547 1553 1558 1554 1570
1593 1591 1589 1585 1581 1577 1572 1568 1563 1557 1550 1545 1544 1547 1545 1544 1551 1553 1555 1553 1554 1555 1555 1555 1555 1556 1557 1556 1556 1560 1550 1546 1546 1547 1546 1545 1559 1548 1545 1530 1535 1539 1536 1546 1545 1560 1562
1591 1589 1588 1585 1581 1578 1573 1569 1565 1560 1554 1549 1548 1554 1555 1557 1556 1557 1557 1557 1555 1555 1556 1555 1555 1554 1559 1563 1563 1558 1551 1547 1546 1547 1546 1547 1552 1545 1536 1526 1528 1525 1526 1538 1540 1539 1537
1588 1587 1585 1583 1581 1578 1574 1570 1566 1562 1558 1554 1555 1556 1555 1556 1556 1556 1557 1559 1556 1555 1555 1555 1556 1550 1555 1558 1550 1556 1555 1555 1551 1548 1548 1549 1547 1544 1532 1520 1523 1517 1513 1517 1525 1531 1529
1585 1584 1583 1582 1579 1577 1573 1570 1567 1563 1560 1558 1558 1556 1555 1556 1556 1557 1559 1556 1554 1553 1549 1548 1548 1552 1555 1545 1544 1544 1545 1545 1545 1548 1552 1556 1554 1552 1531 1522 1520 1512 1510 1513 1518 1517 1511
1580 1580 1579 1578 1577 1575 1572 1569 1567 1565 1562 1561 1559 1557 1555 1557 1555 1554 1553 1552 1550 1550 1551 1546 1546 1547 1543 1542 1542 1541 1542 1542 1543 1545 1545 1557 1566 1568 1546 1524 1516 1496 1498 1499 1502 1498 1498
1575 1575 1575 1574 1573 1572 1571 1569 1567 1565 1562 1560 1559 1558 1556 1556 1553 1551 1550 1549 1546 1545 1545 1542 1540 1540 1539 1540 1542 1545 1541 1543 1546 1547 1547 1547 1560 1564 1559 1562 1512 1497 1498 1498 1496 1487 1483
1569 1569 1570 1570 1569 1568 1568 1566 1565 1563 1562 1559 1557 1555 1555 1555 1548 1545 1544 1545 1545 1544 1542 1538 1537 1537 1538 1539 1543 1543 1533 1533 1537 1543 1547 1548 1551 1559 1571 1551 1523 1494 1492 1492 1493 1498 1475
1563 1563 1564 1564 1564 1563 1563 1562 1561 1560 1559 1558 1555 1553 1551 1549 1542 1542 1541 1541 1540 1541 1540 1536 1536 1536 1538 1542 1544 1541 1534 1538 1534 1540 1549 1548 1548 1556 1556 1558 1514 1488 1487 1491 1501 1489 1473
1556 1557 1558 1558 1558 1558 1558 1557 1556 1556 1554 1554 1552 1549 1547 1543 1538 1536 1535 1534 1534 1536 1535 1532 1536 1535 1537 1542 1538 1533 1539 1533 1539 1526 1532 1531 1546 1548 1560 1558 1509 1480 1488 1490 1475 1471 1473
1548 1549 1550 1551 1551 1551 1552 1552 1551 1550 1549 1548 1546 1544 1542 1540 1533 1529 1527 1526 1526 1526 1527 1528 1527 1526 1525 1533 1536 1537 1535 1542 1533 1520 1514 1520 1502 1510 1508 1487 1470 1471 1467 1468 1469 1470 1469